This is the latest recevied weather packets stored in our database for station/object PY2UTU-WX. If no packets are shown the sender has not sent any weather packets the latest 10 day(s).
| Time | Temp. | Humidity | Pressure | Rain* | Wind** | Luminosity | Snow |
|---|---|---|---|---|---|---|---|
| 1777747343 | 23.33° C | 98% | 925 hPa | - | - | - | - |
| 1777746443 | 23.89° C | 98% | 924.9 hPa | - | - | - | - |
| 1777745543 | 23.33° C | 98% | 924.8 hPa | - | - | - | - |
| 1777744643 | 25° C | 98% | 924.6 hPa | - | - | - | - |
| 1777743743 | 23.89° C | 98% | 924.4 hPa | - | - | - | - |
| 1777742843 | 25° C | 98% | 924.5 hPa | - | - | - | - |
| 1777741943 | 26.67° C | 98% | 924.5 hPa | - | - | - | - |
| 1777741043 | 29.44° C | 93% | 924.3 hPa | - | - | - | - |
| 1777740143 | 27.78° C | 95% | 924.3 hPa | - | - | - | - |
| 1777739243 | 28.33° C | 89% | 924.5 hPa | - | - | - | - |
| 1777738343 | 28.33° C | 91% | 924.5 hPa | - | - | - | - |
| 1777737443 | 28.89° C | 87% | 924.8 hPa | - | - | - | - |
| 1777736544 | 28.89° C | 90% | 925.2 hPa | - | - | - | - |
| 1777735643 | 26.67° C | 92% | 925.4 hPa | - | - | - | - |
| 1777734743 | 26.67° C | 93% | 925.8 hPa | - | - | - | - |
| 1777733843 | 27.22° C | 93% | 925.8 hPa | - | - | - | - |
| 1777732943 | 26.11° C | 93% | 926 hPa | - | - | - | - |
| 1777732043 | 26.67° C | 93% | 925.9 hPa | - | - | - | - |
| 1777731143 | 26.67° C | 96% | 926 hPa | - | - | - | - |
| 1777730243 | 26.11° C | 96% | 926.2 hPa | - | - | - | - |
| 1777729343 | 25.56° C | 95% | 926.2 hPa | - | - | - | - |
| 1777728443 | 26.11° C | 98% | 926.1 hPa | - | - | - | - |
| 1777727543 | 25.56° C | 98% | 926.2 hPa | - | - | - | - |
| 1777726643 | 25.56° C | 98% | 926.1 hPa | - | - | - | - |
| 1777725743 | 25° C | 98% | 926.2 hPa | - | - | - | - |
* Rain since midnight (hover to see other rain measurements)
** Current wind speed in m/s (hover to see current wind gust speed)